METEOR 2-5 DEB, 38278

Orbit data source: Space-Track

METEOR 2-5 DEB, 38278 is space debris in LEO originally from a launch on Wed, 31 Oct 1979 UTC launched from the Plesetsk Missile And Space Complex (PKMTR). Debris objects in space refer to the collection of defunct objects orbiting the Earth. Examples of debris include non-operational satellites, rocket bodies, and fragments generated from explosions, collisions, or faulty payload assembly.

Loading next visibility...
Identifier
38278, 1979-095BY
Orbit
LEO
Country
Flag of CISCIS
Related business
Manufacturer
Unknown
Mission
Spacecraft
Bus & Motor
Unknown
Mass
Unknown
Launch date (UTC)
1979-10-31 (47 years ago)
Launch vehicle
Unknown
Launch site
Plesetsk Missile And Space Complex (PKMTR)
Object type
Payload
Rocket body
Debris
Shape & HBR
Unknown shape, 0.1 m
Radar Cross Section
Small (<0.1 m²)

Expand to show TLE details & history
Last TLE update: 17 hours ago

TLE from 17 hours ago
0 METEOR 2-5 DEB
1 38278U 79095BY  26123.39953146  .00005498  00000-0  18266-2 0  9993
2 38278  81.1698 174.8811 0005021 158.4721 216.9678 14.37648101754177
Epoch: 2026-05-03T09:35Z
TLE epoch observation values (Epoch: 2026-05-03T09:35:19.518Z)
Latitude
15.19478°
Longitude
172.15138°
Altitude
771.381 km
Speed
7.468 km/s
True Right ascension
11h 49m 08s
True Declination
15° 06' 29"
Sunlit
Object was in full shadow at epoch
Visualization orbit readout
Latitude
Unknown
Longitude
Unknown
Altitude
Unknown
Speed
Unknown
Apparent Right ascension
Unknown
Apparent Declination
Unknown
Sunlit
N/A
Visualization observer readout
Local Sidereal Time
10:29:49
Azimuth
Unknown
Elevation
Unknown
Doppler factor
Unknown
Orbital elements
Apogee altitude
767.006 km
Perigee altitude
759.835 km
Semi-major axis
7,141.558 km
Eccentricity
0.0005
Inclination
81.1698°
RAAN
174.8811°
Arg. of periapsis
158.4721°
True anomaly
216.93322°
Mean anomaly
216.9678°
Eccentric anomaly
216.95051°
Mean motion
3.59628 °/min
Orbital period
100.1 mins
BSTAR
0.0018266
Loading maneuver chart data...
Computing Atmospheric mass density...

Documentation

Showing up to 5 results
|